Location: Oshawa
(43.9000°N, 78.8670°W)
Time: 18:50:25
(UTC-04:00)

Altair - Visible Passes

Search period start: 30 October 2014 00:00
Search period end: 08 November 2014 23:00
Orbit: 1501 x 1683 km, 47.2° (Epoch: 28 October)

Date Brightness Start Highest point End Pass type
(mag) Time Alt. Az. Time Alt. Az. Time Alt. Az.
30 Oct 9.0 02:45:55 27° E 02:45:55 27° E 02:50:01 10° ENE visible
30 Oct 7.4 04:43:56 74° W 04:45:07 87° NNW 04:55:15 10° ENE visible
30 Oct 7.7 06:41:58 15° W 06:50:35 75° N 07:00:46 10° E visible
31 Oct 9.3 02:22:13 19° ENE 02:22:13 19° ENE 02:24:46 10° ENE visible
31 Oct 7.4 04:20:15 85° ENE 04:20:15 85° ENE 04:30:02 10° ENE visible
31 Oct 7.7 06:18:17 22° WNW 06:25:21 74° N 06:35:31 10° E visible
01 Nov 9.6 01:58:31 13° ENE 01:58:31 13° ENE 01:59:30 10° ENE visible
01 Nov 7.7 03:56:33 66° ENE 03:56:33 66° ENE 04:04:49 10° ENE visible
01 Nov 7.7 05:54:34 31° WNW 06:00:07 74° N 06:10:16 10° E visible
02 Nov 8.1 02:32:50 50° ENE 02:32:50 50° ENE 02:39:36 10° ENE visible
02 Nov 7.6 04:30:51 41° WNW 04:34:53 73° N 04:45:01 10° E visible
03 Nov 8.6 02:09:06 37° ENE 02:09:06 37° ENE 02:14:23 10° ENE visible
03 Nov 7.6 04:07:08 55° WNW 04:09:39 74° N 04:19:46 10° E visible
03 Nov 7.7 06:05:09 10° WNW 06:15:03 88° SSW 06:25:15 10° ESE visible
04 Nov 9.0 01:45:23 27° ENE 01:45:23 27° ENE 01:49:11 10° ENE visible
04 Nov 7.5 03:43:25 69° NW 03:44:26 74° N 03:54:31 10° E visible
04 Nov 7.7 05:41:26 16° WNW 05:49:51 90° NNE 06:00:03 10° ESE visible
05 Nov 9.3 01:21:40 19° ENE 01:21:40 19° ENE 01:23:58 10° ENE visible
05 Nov 7.5 03:19:42 73° NNE 03:19:42 73° NNE 03:29:16 10° E visible
05 Nov 7.6 05:17:43 23° WNW 05:24:39 87° NNE 05:34:51 10° ESE visible
06 Nov 9.6 00:57:58 13° ENE 00:57:58 13° ENE 00:58:46 10° ENE visible
06 Nov 7.8 02:55:59 60° NE 02:55:59 60° NE 03:04:02 10° E visible
06 Nov 7.6 04:54:01 32° WNW 04:59:27 85° NNE 05:09:38 10° ESE visible
07 Nov 8.3 02:32:18 46° ENE 02:32:18 46° ENE 02:38:47 10° ENE visible
07 Nov 7.5 04:30:20 43° WNW 04:34:15 82° NNE 04:44:24 10° ESE visible
08 Nov 8.7 02:08:38 34° ENE 02:08:38 34° ENE 02:13:33 10° ENE visible
08 Nov 7.5 04:06:40 58° WNW 04:09:03 81° NNE 04:19:10 10° ESE visible
08 Nov 7.9 06:04:42 12° WNW 06:13:47 57° SW 06:23:35 10° SE visible
